Date,TemperatureHighF,TemperatureAvgF,TemperatureLowF,DewpointHighF,DewpointAvgF,DewpointLowF,HumidityHigh,HumidityAvg,HumidityLow,PressureMaxIn,PressureMinIn,WindSpeedMaxMPH,WindSpeedAvgMPH,GustSpeedMaxMPH,PrecipitationSumIn
2012-1-1,32.2,25.2,18.0,30.9,17.7,7.3,95,73,60,30.33,29.78,31,10,38,0.00
2012-1-2,18.1,13.3,0.7,8.2,1.7,-7.1,73,60,48,30.60,30.33,27,7,28,0.00
2012-1-3,24.1,14.5,1.8,14.9,6.1,-4.0,82,69,55,30.55,29.93,25,8,25,0.01
2012-1-4,35.6,24.1,16.4,25.4,18.8,12.7,89,80,62,30.13,29.95,13,3,14,0.00
2012-1-5,43.8,31.9,17.0,33.2,25.7,14.3,94,79,58,30.00,29.60,16,5,20,0.06
2012-1-6,44.1,40.2,34.1,29.9,27.8,23.6,70,61,51,29.89,29.60,24,8,30,0.01
2012-1-7,33.8,28.0,23.5,23.7,19.4,16.1,86,70,62,30.25,29.88,21,5,23,0.00
2012-1-8,38.3,27.9,15.2,27.8,22.3,12.3,92,80,61,30.35,30.07,17,6,19,0.00
2012-1-9,46.1,37.7,31.6,28.6,25.5,19.5,77,62,48,30.07,29.87,20,6,25,0.00
2012-1-10,51.0,36.1,23.9,32.8,27.7,19.7,89,73,48,30.00,29.66,16,5,18,0.00
2012-1-11,35.5,25.7,11.7,32.9,20.7,4.2,92,81,65,29.93,29.62,26,6,29,0.05
2012-1-12,12.4,10.7,8.8,5.6,2.5,-0.5,78,69,62,29.97,29.88,24,9,25,0.00
2012-1-13,14.9,10.6,7.7,3.9,1.9,-1.7,75,67,55,30.10,29.96,19,3,19,0.00
2012-1-14,17.2,11.0,1.1,12.4,5.6,-4.1,82,78,71,30.19,30.10,15,4,15,0.00
2012-1-15,35.8,26.6,17.2,23.6,18.8,12.4,85,73,57,30.20,29.78,25,10,33,0.00
2012-1-16,30.9,25.0,16.9,24.0,15.8,7.7,86,69,50,30.08,29.76,20,6,20,0.00
2012-1-17,16.9,9.0,-0.2,8.2,-1.1,-8.1,77,63,47,30.37,30.05,20,6,25,0.00
2012-1-18,23.3,8.3,-5.4,17.6,-0.2,-13.2,86,68,54,30.35,29.74,33,11,33,0.00
2012-1-19,0.3,-7.2,-15.1,-13.2,-19.3,-23.4,65,55,40,30.31,30.02,19,5,23,0.00
2012-1-20,9.9,1.6,-11.2,0.0,-7.2,-20.6,79,66,55,30.35,30.24,9,1,9,0.00
2012-1-21,22.2,7.4,-8.9,17.5,-0.1,-15.2,83,71,51,30.35,29.88,30,10,31,0.00
2012-1-22,23.5,22.5,21.3,21.5,18.4,13.1,92,84,70,29.89,29.54,23,6,27,0.00
2012-1-23,26.3,23.0,19.4,23.6,19.3,13.4,93,86,77,29.91,29.51,19,5,26,0.00
2012-1-24,24.4,19.4,12.9,17.3,13.7,8.4,85,78,69,30.32,29.91,13,2,15,0.00
2012-1-25,31.8,27.1,21.1,27.2,22.5,17.3,90,83,70,30.29,29.83,22,10,27,0.00
2012-1-26,38.0,29.6,22.1,27.9,24.1,16.9,92,80,65,29.84,29.65,23,6,23,0.08
2012-1-27,33.2,24.3,13.6,31.7,19.2,8.5,94,81,59,29.89,29.69,23,6,30,0.00
2012-1-28,23.8,19.6,13.6,14.2,11.7,7.9,79,71,59,29.99,29.87,22,5,22,0.00
2012-1-29,17.7,12.6,5.2,6.9,2.7,0.6,82,64,52,30.21,30.03,13,2,16,0.00
2012-1-30,35.8,26.3,16.1,26.1,17.9,6.9,81,70,59,30.03,29.63,20,6,22,0.01
2012-1-31,44.5,32.8,21.8,33.7,26.7,18.5,93,78,62,29.96,29.54,16,3,19,0.17
2012-2-1,32.2,30.9,29.5,30.8,28.3,25.6,96,90,82,30.10,29.94,14,3,15,0.02
2012-2-2,33.8,32.3,31.5,31.9,30.6,28.7,97,93,88,30.41,30.10,9,0,10,0.02
2012-2-3,36.9,31.2,22.4,28.7,26.7,20.0,91,84,69,30.52,30.41,11,0,11,0.01
2012-2-4,37.6,27.4,20.6,30.0,24.5,18.6,95,89,72,30.46,30.30,9,1,11,0.00
2012-2-5,28.2,25.3,20.6,25.3,23.0,18.4,93,91,88,30.36,30.16,14,3,16,0.00
2012-2-6,42.2,32.2,24.5,28.7,25.2,21.8,93,77,56,30.32,30.05,18,5,21,0.00
2012-2-7,30.3,21.5,11.2,22.4,10.0,-0.5,73,61,44,30.57,30.32,16,4,25,0.00
2012-2-8,30.4,17.2,5.6,6.9,2.0,-3.7,69,53,29,30.53,30.24,12,3,16,0.00
2012-2-9,35.3,25.0,13.5,21.8,13.1,3.4,76,61,41,30.24,29.87,22,7,24,0.00
2012-2-10,24.4,10.5,4.3,16.1,-5.7,-14.7,71,48,29,30.58,29.99,28,8,30,0.00
2012-2-11,17.3,7.7,-1.4,-5.9,-11.0,-17.5,52,42,29,30.63,30.50,27,6,28,0.00
2012-2-12,29.7,15.8,2.2,0.3,-2.9,-6.2,72,46,23,30.50,30.09,14,4,15,0.00
2012-2-13,32.4,23.9,14.3,23.7,12.1,0.1,89,62,45,30.09,29.74,18,7,19,0.00
2012-2-14,30.7,27.6,25.0,24.8,22.5,20.4,89,81,71,29.79,29.71,16,5,17,0.00
2012-2-15,40.3,32.2,24.7,31.4,27.5,22.7,94,84,57,30.00,29.78,13,3,14,0.02
2012-2-16,37.8,30.4,24.1,28.7,21.3,16.4,91,70,49,30.06,29.99,20,3,20,0.00
2012-2-17,36.0,30.2,25.7,26.4,21.9,16.6,89,71,59,30.13,29.94,18,3,20,0.02
2012-2-18,36.5,26.2,16.7,19.5,15.4,12.8,89,65,40,30.26,30.13,12,2,13,0.00
2012-2-19,41.8,29.8,17.0,23.0,18.6,11.6,82,64,42,30.17,30.03,19,8,21,0.00
2012-2-20,42.1,33.3,27.5,29.7,22.1,17.0,93,65,39,30.08,29.64,29,13,31,0.00
2012-2-21,36.2,32.2,29.1,31.2,27.7,21.1,95,84,70,29.64,29.45,26,10,29,0.12
2012-2-22,35.5,28.3,17.8,22.8,20.1,14.3,88,72,56,29.51,29.40,16,3,18,0.00
2012-2-23,35.9,29.8,23.2,23.6,21.0,15.6,83,70,56,29.71,29.43,12,1,12,0.00
2012-2-24,27.5,22.2,12.8,21.1,12.5,2.3,87,67,47,30.07,29.70,25,6,25,0.00
2012-2-25,27.8,19.1,10.2,15.4,10.0,2.6,78,68,55,30.25,30.07,16,3,19,0.00
2012-2-26,36.2,29.2,25.0,30.7,19.6,12.5,85,67,55,30.10,29.61,34,10,34,0.00
2012-2-27,32.1,24.9,19.2,21.6,14.4,9.6,83,65,46,30.43,29.95,25,5,34,0.00
2012-2-28,32.9,28.5,22.7,28.1,21.3,14.6,92,75,61,30.40,29.70,20,7,26,0.42
2012-2-29,33.4,31.9,30.4,31.8,29.6,26.1,96,91,83,29.72,29.31,22,7,29,0.47
2012-3-1,38.8,32.3,29.3,29.5,27.3,25.3,92,82,60,29.80,29.70,11,2,13,0.07
2012-3-2,37.6,31.7,28.1,30.6,26.7,20.2,94,82,60,29.74,29.54,16,4,19,0.00
2012-3-3,31.6,24.9,19.2,24.3,18.4,13.4,86,76,68,29.85,29.54,19,5,21,0.00
2012-3-4,28.2,18.1,4.5,13.5,9.1,0.0,82,68,51,30.10,29.84,10,1,12,0.00
2012-3-5,31.2,21.9,8.6,23.9,15.1,4.8,86,75,62,30.23,29.88,27,9,28,0.00
2012-3-6,51.1,40.0,29.3,41.8,29.9,21.6,77,67,53,29.87,29.55,22,10,23,0.00
2012-3-7,47.1,38.8,27.9,41.8,33.3,18.0,94,81,66,29.94,29.49,22,7,24,0.07
2012-3-8,33.7,25.8,17.7,23.7,14.8,0.2,79,64,32,30.39,29.94,34,7,34,0.00
2012-3-9,30.0,22.1,11.2,14.1,6.4,3.0,71,51,34,30.63,30.15,23,7,26,0.00
2012-3-10,52.5,40.0,30.0,34.5,24.5,13.6,60,54,45,30.15,29.86,30,15,30,0.00
2012-3-11,64.7,50.9,41.5,42.7,32.3,27.8,60,49,37,29.95,29.75,23,9,26,0.00
2012-3-12,52.8,46.9,43.2,47.2,43.4,30.2,98,89,42,29.79,29.58,24,6,26,0.43
2012-3-13,62.1,48.7,34.0,39.3,31.7,20.9,87,55,27,30.01,29.80,26,6,26,0.00
2012-3-14,71.5,58.8,48.5,49.1,42.0,24.1,71,55,39,29.88,29.67,24,8,28,0.00
2012-3-15,66.1,49.6,35.9,33.0,24.1,18.1,52,37,27,30.04,29.87,15,2,15,0.00
2012-3-16,78.1,57.0,35.0,59.2,41.8,21.2,77,57,45,29.97,29.74,20,6,21,0.00
2012-3-17,79.2,68.5,58.1,62.8,57.2,53.4,86,68,50,29.74,29.67,31,14,31,0.00
2012-3-18,79.4,69.9,60.2,59.3,57.3,54.5,85,66,45,29.73,29.63,33,15,35,0.00
2012-3-19,77.2,68.4,60.4,60.2,58.0,55.5,94,71,51,29.69,29.58,33,16,35,0.43
2012-3-20,63.4,60.4,57.2,59.3,54.6,51.3,94,82,68,29.90,29.62,22,6,24,0.01
2012-3-21,62.6,56.6,53.2,56.0,53.4,51.5,96,89,75,30.04,29.84,18,2,21,0.01
2012-3-22,64.5,57.6,52.8,60.1,55.7,51.7,99,94,79,30.06,29.94,12,1,15,0.18
2012-3-23,71.5,59.2,49.4,60.3,54.7,46.3,99,86,58,29.95,29.82,12,1,13,0.00
2012-3-24,69.8,54.8,45.8,54.1,48.9,42.6,97,82,56,30.03,29.87,20,1,21,0.00
2012-3-25,56.0,45.1,35.8,42.5,28.6,19.6,88,57,25,30.27,30.03,18,4,22,0.00
2012-3-26,42.6,38.6,34.6,26.0,21.4,16.4,58,50,38,30.33,29.93,33,9,33,0.00
2012-3-27,69.1,52.6,41.6,48.2,37.1,21.1,71,56,34,29.93,29.49,36,17,39,0.02
2012-3-28,54.4,45.2,37.9,38.0,32.4,29.8,73,61,43,30.08,29.71,22,6,27,0.00
2012-3-29,51.9,43.4,30.1,39.1,31.0,26.1,89,64,44,30.08,29.79,26,6,26,0.05
2012-3-30,49.2,42.5,36.8,40.8,36.8,33.0,87,80,71,29.88,29.78,23,4,23,0.01
2012-3-31,47.7,43.9,39.9,43.6,40.0,36.9,90,86,79,29.87,29.70,22,9,23,0.00
2012-4-1,66.1,53.6,45.1,43.5,41.5,36.6,92,67,37,29.74,29.59,22,5,25,0.00
2012-4-2,64.7,56.2,48.0,42.8,37.5,31.0,66,50,39,29.82,29.64,32,9,32,0.00
2012-4-3,64.8,51.7,42.9,39.4,31.4,20.6,81,51,20,30.08,29.80,21,6,25,0.00
2012-4-4,63.4,48.4,31.6,28.0,22.0,13.2,76,40,18,30.10,29.93,18,3,19,0.00
2012-4-5,59.0,45.7,32.5,25.2,21.8,16.5,66,41,23,30.18,29.99,17,4,20,0.00
2012-4-6,60.4,45.2,25.8,28.9,23.3,19.2,83,46,23,30.27,30.06,22,7,24,0.00
2012-4-7,50.4,47.2,40.8,47.9,34.1,24.3,95,62,42,30.13,29.98,27,10,30,0.18
2012-4-8,59.9,48.4,35.8,27.9,21.9,17.2,61,37,20,30.17,30.00,28,6,32,0.00
2012-4-9,44.1,37.2,27.0,21.0,17.5,14.0,64,45,37,30.17,30.00,23,7,26,0.00
2012-4-10,42.8,32.6,25.8,17.7,14.2,10.7,68,48,30,30.30,30.15,24,5,24,0.00
2012-4-11,56.3,38.2,22.4,23.6,18.6,13.6,71,48,26,30.40,30.20,12,2,14,0.00
2012-4-12,62.3,45.7,24.7,29.7,22.0,19.3,86,46,20,30.21,30.01,18,3,19,0.00
2012-4-13,52.2,49.5,47.1,47.6,34.3,23.4,91,58,35,30.02,29.69,40,15,40,0.00
2012-4-14,74.9,61.3,46.7,49.1,42.5,31.8,92,57,22,29.74,29.58,26,8,29,0.00
2012-4-15,61.6,52.2,44.1,54.2,49.1,43.0,97,90,60,29.58,29.22,31,6,40,1.28
2012-4-16,44.6,34.5,28.7,43.8,31.4,25.6,97,88,78,30.21,29.21,29,8,30,0.16
2012-4-17,56.6,42.0,25.0,40.3,32.0,23.0,95,70,42,30.30,29.98,23,5,28,0.00
2012-4-18,62.6,51.6,40.1,50.0,42.9,34.0,94,74,47,30.00,29.70,32,9,36,0.20
2012-4-19,47.3,42.1,35.3,34.3,30.5,20.2,85,65,37,30.06,29.93,19,4,20,0.00
2012-4-20,58.3,52.3,42.1,30.3,22.5,19.0,61,32,22,30.07,29.98,18,3,21,0.06
2012-4-21,50.2,44.0,41.1,42.6,32.8,21.8,93,67,41,29.99,29.92,22,8,27,0.00
2012-4-22,52.9,44.4,36.8,39.9,37.4,34.5,94,78,55,30.22,29.99,13,1,13,0.00
2012-4-23,64.5,47.9,30.9,38.7,33.3,29.1,96,63,32,30.20,29.81,13,1,17,0.00
2012-4-24,73.3,59.2,44.8,39.0,33.2,28.9,72,40,24,29.81,29.56,18,4,19,0.00
2012-4-25,68.8,58.7,48.3,46.7,39.6,28.6,77,50,34,29.79,29.53,28,6,32,0.00
2012-4-26,56.5,46.1,35.2,41.1,25.8,15.3,80,49,21,30.17,29.79,22,5,26,0.00
2012-4-27,58.1,45.7,27.0,26.8,22.1,16.8,89,45,23,30.21,30.03,21,6,25,0.01
2012-4-28,51.1,48.6,44.8,35.6,30.1,19.5,62,49,33,30.21,30.05,25,6,30,0.01
2012-4-29,60.7,51.8,43.8,41.6,36.1,31.7,75,56,38,30.22,30.00,19,6,22,0.01
2012-4-30,60.9,53.4,42.6,47.3,44.8,39.1,90,74,58,30.01,29.79,21,7,21,0.00
2012-5-1,71.3,59.3,51.0,58.5,52.4,46.0,96,78,61,29.79,29.54,33,13,35,1.06
2012-5-2,80.1,67.1,56.6,60.5,57.0,53.2,97,73,42,29.71,29.44,33,4,39,0.56
2012-5-3,75.1,63.4,54.8,60.5,56.1,50.8,98,79,50,29.90,29.64,18,3,23,0.30
2012-5-4,69.3,55.4,48.5,50.8,46.4,41.4,91,73,49,30.00,29.90,22,7,23,0.00
2012-5-5,58.4,53.4,48.5,54.6,49.0,41.6,96,85,75,30.06,29.90,18,3,24,0.31
2012-5-6,56.3,53.6,46.8,55.0,52.1,45.7,99,95,88,30.00,29.78,20,2,26,1.39
2012-5-7,65.5,57.0,50.5,51.5,44.7,37.0,97,67,40,29.96,29.82,26,5,28,0.00
2012-5-8,59.6,50.7,44.8,50.2,45.3,40.2,91,82,58,29.94,29.78,14,2,16,0.24
2012-5-9,66.6,54.2,42.6,45.7,39.3,31.7,96,62,29,30.04,29.90,13,2,15,0.00
2012-5-10,71.3,57.6,39.1,42.9,39.3,36.2,93,55,30,29.93,29.78,22,7,25,0.00
2012-5-11,69.4,59.1,47.4,52.8,45.9,39.0,89,63,45,30.18,29.73,25,8,27,0.02
2012-5-12,70.6,56.4,42.5,44.6,34.8,23.1,93,54,19,30.34,30.17,15,2,17,0.00
2012-5-14,84.9,74.4,53.8,48.6,42.9,35.2,64,34,19,29.95,29.70,17,7,17,0.00
2012-5-15,72.0,63.7,48.0,45.6,38.8,28.9,62,41,26,30.03,29.69,23,8,30,0.00
2012-5-16,69.8,54.9,37.3,39.2,32.3,24.1,91,49,19,30.15,29.99,14,2,15,0.00
2012-5-17,79.0,65.7,52.8,46.4,40.1,32.5,55,40,27,30.00,29.67,38,14,38,0.00
2012-5-18,91.6,77.0,64.0,56.0,47.9,39.8,52,37,22,29.73,29.64,28,14,30,0.00
2012-5-19,86.7,74.8,62.9,64.6,56.1,48.0,97,55,36,29.82,29.68,35,11,43,1.24
2012-5-20,62.6,53.6,44.8,62.6,50.9,42.0,100,91,64,30.17,29.76,26,5,26,0.04
2012-5-21,73.3,57.8,39.6,51.1,41.6,33.6,98,62,27,30.23,30.03,11,2,14,0.00
2012-5-22,82.0,68.5,55.6,48.4,44.1,39.1,59,43,27,30.03,29.62,29,13,33,0.00
2012-5-23,83.2,68.3,60.9,63.1,52.0,45.0,97,59,33,29.63,29.32,36,13,41,1.06
2012-5-24,63.2,59.0,53.3,61.9,58.0,50.1,100,96,88,29.64,29.30,22,4,25,2.39
2012-5-25,66.8,58.5,48.5,52.4,47.0,40.0,90,67,42,30.07,29.63,15,3,18,0.00
2012-5-26,63.1,57.4,51.7,59.3,54.7,50.3,96,91,79,30.21,29.88,23,2,30,0.58
2012-5-27,87.6,69.9,56.5,72.0,64.2,55.4,100,84,56,29.88,29.52,28,6,33,0.54
2012-5-28,78.1,67.2,55.9,65.6,58.9,43.2,100,77,48,29.68,29.53,24,6,26,0.60
2012-5-29,64.3,56.3,49.8,48.4,44.4,37.9,79,65,49,29.90,29.65,22,8,28,0.00
2012-5-30,59.0,51.7,44.6,43.9,41.2,37.7,87,69,46,30.00,29.88,14,3,16,0.01
2012-5-31,64.7,54.4,46.2,46.7,41.3,34.3,93,65,34,30.04,29.95,15,1,16,0.00
2012-6-1,71.8,56.7,39.5,49.4,39.4,32.7,95,59,27,29.95,29.73,14,1,15,0.00
2012-6-2,74.7,61.8,44.3,49.4,43.8,38.3,89,56,27,29.73,29.68,19,3,20,0.00
2012-6-3,78.3,61.6,49.9,53.7,49.6,45.7,91,68,32,29.77,29.70,13,1,15,0.00
2012-6-4,82.4,73.9,59.0,58.3,55.6,50.2,89,55,36,29.91,29.83,12,2,17,0.00
2012-6-5,81.8,68.1,54.5,61.7,55.1,46.1,98,68,29,29.98,29.90,15,2,15,0.00
2012-6-6,78.6,66.9,60.2,62.8,57.5,54.8,96,74,45,30.05,29.94,21,4,22,0.45
2012-6-7,79.9,70.6,60.5,64.5,60.3,54.9,95,71,54,30.05,29.91,17,5,19,0.00
2012-6-8,83.2,77.4,67.3,68.1,62.0,58.8,77,60,50,29.87,29.66,22,7,27,0.02
2012-6-9,89.0,79.0,69.1,61.2,56.7,51.7,66,48,29,29.68,29.58,24,11,27,0.00
2012-6-10,89.9,78.6,63.9,68.7,60.4,54.4,95,56,36,29.71,29.50,35,14,37,0.77
2012-6-11,72.8,64.2,54.4,62.7,54.0,39.8,98,72,49,29.92,29.61,29,8,30,0.01
2012-6-12,67.1,56.3,47.3,46.2,42.9,38.5,84,63,38,30.13,29.92,20,4,20,0.00
2012-6-13,68.4,58.5,48.2,54.0,47.4,43.7,87,68,46,30.09,29.90,18,6,27,0.02
2012-6-14,69.1,67.3,64.8,63.1,61.3,59.2,86,81,75,29.84,29.72,29,13,31,1.41
2012-6-15,78.6,69.5,60.7,65.3,61.1,56.8,95,76,48,29.95,29.83,24,2,24,0.00
2012-6-16,74.9,65.9,60.2,70.3,61.6,53.2,97,86,70,29.94,29.71,28,2,28,0.44
2012-6-17,76.1,64.9,55.7,61.1,54.9,50.7,86,71,42,29.79,29.43,27,7,31,0.15
2012-6-18,74.0,70.9,67.8,62.8,61.4,60.2,81,72,62,29.60,29.58,0,0,0,1.04
2012-6-19,89.0,74.6,62.6,74.1,66.4,58.8,98,77,54,29.74,29.52,32,8,32,0.45
2012-6-20,82.6,72.6,62.0,70.3,66.3,60.3,95,81,63,29.80,29.56,24,6,25,0.23
2012-6-21,74.7,65.9,59.3,60.4,56.1,51.3,96,73,47,29.94,29.78,19,5,25,0.00
2012-6-22,78.1,67.8,54.5,59.3,54.4,48.8,94,65,39,29.97,29.90,20,2,20,0.01
2012-6-23,77.2,67.8,56.5,64.2,58.7,52.4,93,74,52,29.92,29.84,22,6,23,0.00
2012-6-24,79.4,69.6,58.6,64.7,60.0,53.4,95,73,49,30.07,29.86,20,3,20,0.00
2012-6-25,76.5,64.9,51.1,55.6,51.2,46.4,96,65,37,30.17,29.99,12,2,13,0.00
2012-6-26,75.4,66.2,53.5,56.2,53.1,50.2,92,64,43,30.00,29.70,21,7,24,0.00
2012-6-27,88.8,76.5,66.4,73.6,63.7,55.7,91,65,50,29.70,29.56,19,7,22,0.00
2012-6-28,85.1,74.9,66.4,71.5,59.8,50.0,95,63,32,29.86,29.65,15,3,18,0.00
2012-6-29,88.0,74.3,58.7,64.2,58.2,49.9,90,60,27,29.84,29.71,14,3,16,0.00
2012-6-30,87.4,74.0,58.9,65.2,59.9,53.4,96,66,34,29.83,29.74,10,1,11,0.00
2012-7-1,90.5,77.8,62.6,71.8,65.6,60.5,95,69,40,29.88,29.78,18,3,19,0.00
2012-7-2,94.9,85.0,74.6,75.8,70.9,63.4,83,64,47,29.80,29.64,21,7,21,0.00
2012-7-3,89.5,78.4,65.0,75.6,69.2,61.6,96,74,59,29.83,29.66,38,4,38,0.88
2012-7-4,95.1,84.1,74.4,79.9,74.5,66.7,96,74,52,29.76,29.63,21,5,22,0.00
2012-7-5,89.0,78.1,67.1,73.0,66.6,58.1,92,70,39,29.91,29.73,25,2,30,0.04
2012-7-6,91.0,72.6,62.9,77.9,65.0,58.9,96,79,58,30.00,29.78,23,4,28,0.44
2012-7-7,82.4,70.3,59.3,64.3,60.4,52.4,98,74,38,30.09,29.98,13,3,16,0.00
2012-7-8,86.1,73.5,61.3,66.1,62.7,59.3,96,72,44,30.15,30.07,14,2,17,0.00
2012-7-9,82.6,71.1,57.5,63.3,56.7,49.9,95,65,33,30.16,30.10,13,2,17,0.00
2012-7-10,85.5,71.6,57.8,65.2,57.5,50.2,95,65,31,30.19,30.09,11,0,12,0.00
2012-7-11,87.0,73.9,58.7,64.4,57.3,49.6,91,61,29,30.15,30.03,18,3,18,0.00
2012-7-12,88.2,76.7,64.8,65.3,60.8,55.5,82,60,36,30.05,29.93,23,7,26,0.00
2012-7-13,84.5,72.9,65.8,71.9,65.5,62.3,98,79,58,29.99,29.90,26,7,31,1.01
2012-7-14,87.6,74.9,63.4,71.1,67.2,62.8,99,80,52,30.01,29.94,13,1,14,0.01
2012-7-15,89.3,77.6,65.0,70.8,67.9,63.5,97,74,49,30.05,29.92,11,2,14,0.00
2012-7-16,94.7,83.1,73.0,70.2,67.5,62.5,83,62,37,29.92,29.68,28,10,31,0.00
2012-7-17,80.3,75.1,70.1,71.0,68.5,64.3,93,80,71,29.94,29.72,18,3,20,0.00
2012-7-18,74.4,69.4,66.4,69.4,66.1,63.8,98,90,80,30.02,29.89,18,2,18,0.77
2012-7-19,80.7,71.5,65.0,69.0,65.4,63.2,96,82,59,30.10,29.98,11,0,11,0.00
2012-7-20,80.7,72.6,63.7,72.3,65.2,60.4,92,78,62,30.18,30.01,20,6,20,0.00
2012-7-21,83.6,75.0,68.9,71.4,69.0,66.5,96,82,61,30.09,29.98,12,2,14,0.12
2012-7-22,87.4,77.3,66.6,74.1,70.0,65.4,99,80,58,30.04,29.87,22,4,23,0.00
2012-7-23,88.2,79.3,72.5,73.5,68.8,61.7,94,73,44,29.99,29.88,13,3,15,0.00
2012-7-24,82.8,76.0,67.6,70.8,68.2,65.2,93,77,63,30.02,29.82,19,3,19,0.00
2012-7-25,83.8,77.4,71.8,74.1,70.3,67.4,92,79,65,29.82,29.58,23,5,28,0.00
2012-7-26,81.8,71.0,60.4,69.4,61.3,56.8,93,74,44,29.86,29.63,23,3,23,0.00
2012-7-27,77.2,67.2,58.9,61.8,59.7,57.3,96,78,54,30.10,29.86,14,2,17,0.00
2012-7-28,81.6,73.5,55.3,66.0,58.9,51.4,96,63,38,30.18,30.04,16,3,17,0.00
2012-7-29,82.8,73.7,67.1,68.2,66.1,62.9,96,79,57,30.07,29.94,14,4,14,0.06
2012-7-30,86.7,75.2,65.6,69.4,64.5,55.9,96,72,37,29.98,29.87,25,5,25,0.00
2012-7-31,85.3,72.2,58.7,65.2,59.8,54.1,96,69,37,30.05,29.96,11,1,12,0.00
2012-8-1,91.2,77.3,64.5,74.1,65.6,58.5,88,68,51,29.97,29.78,21,7,23,0.00
2012-8-2,87.2,76.8,67.6,67.5,63.3,56.6,91,66,38,29.91,29.82,13,2,15,0.01
2012-8-3,86.7,74.3,60.2,65.4,62.0,57.7,95,69,39,29.94,29.77,28,3,41,0.23
2012-8-4,76.3,68.7,64.2,66.3,61.4,55.0,99,80,49,29.95,29.79,19,5,25,0.24
2012-8-5,76.5,64.9,53.5,57.4,52.4,44.3,92,67,38,30.20,29.96,17,4,19,0.00
2012-8-6,85.3,78.4,67.6,64.8,60.6,56.5,84,56,39,30.11,29.95,15,6,19,0.00
2012-8-7,82.6,71.7,61.0,64.3,58.0,48.9,96,67,32,30.04,29.94,17,2,18,0.00
2012-8-8,68.8,62.6,57.5,64.2,60.0,55.2,97,91,73,30.09,30.00,12,1,13,0.14
2012-8-9,71.8,62.0,55.3,63.1,57.6,53.5,100,87,57,30.17,30.03,19,3,25,0.01
2012-8-10,74.6,61.6,51.1,56.3,51.0,43.5,96,72,38,30.22,30.13,19,3,21,0.00
2012-8-11,78.5,61.8,45.2,57.4,50.7,43.3,96,71,38,30.17,30.04,10,0,11,0.00
2012-8-12,73.3,65.0,57.3,60.9,58.0,51.3,93,79,48,30.06,30.00,12,0,13,0.00
2012-8-13,78.3,65.2,55.0,66.9,58.1,53.7,98,80,50,30.05,29.98,18,2,19,0.26
2012-8-14,76.0,63.5,49.6,58.2,53.4,48.2,97,73,40,30.03,29.92,10,0,10,0.00
2012-8-15,79.8,68.6,56.7,66.5,60.5,53.8,93,77,56,29.92,29.72,24,7,25,0.01
2012-8-16,68.6,60.7,51.1,65.6,51.7,47.7,91,73,59,30.05,29.76,22,6,26,0.01
2012-8-17,72.3,57.7,42.8,49.2,45.4,41.5,96,68,35,30.16,30.05,15,1,15,0.00
2012-8-18,77.4,59.9,44.6,55.8,49.1,42.4,96,72,35,30.09,29.96,21,2,23,0.12
2012-8-19,74.2,61.4,49.2,58.2,48.2,36.8,98,68,28,30.07,30.01,16,2,18,0.00
2012-8-20,75.4,58.8,40.8,50.4,44.7,38.3,95,65,29,30.09,30.02,13,1,16,0.00
2012-8-21,79.8,63.4,44.8,53.6,47.7,42.6,96,62,30,30.11,30.01,15,3,17,0.00
2012-8-22,84.3,69.7,57.2,60.5,54.3,49.1,78,60,33,30.03,29.90,23,8,24,0.00
2012-8-23,82.8,73.6,65.3,66.6,62.7,59.6,88,70,54,29.94,29.80,23,8,25,0.11
2012-8-24,89.5,76.8,64.5,69.3,64.6,59.3,87,68,45,29.87,29.81,19,6,20,0.00
2012-8-25,75.6,71.2,66.8,65.7,63.5,60.8,91,77,67,29.99,29.88,17,6,19,0.00
2012-8-26,85.3,73.0,64.0,67.0,60.6,45.5,97,70,26,30.06,29.96,14,2,16,0.01
2012-8-27,84.0,68.4,51.3,58.8,54.9,49.1,95,66,37,30.17,30.06,15,2,18,0.00
2012-8-28,80.9,66.8,54.2,63.0,58.6,52.5,95,77,49,30.19,30.04,12,2,17,0.00
2012-8-29,90.5,76.9,62.9,66.0,62.8,59.5,90,64,40,30.04,29.79,22,6,26,0.00
2012-8-30,87.4,76.9,67.4,65.8,62.1,56.9,78,61,41,29.95,29.72,21,7,22,0.00
2012-8-31,83.8,68.5,53.1,56.8,50.0,40.8,95,58,23,30.17,29.95,15,2,15,0.00
2012-9-1,84.0,68.7,51.9,54.2,49.1,45.0,87,54,27,30.21,30.05,17,3,18,0.00
2012-9-2,86.7,73.5,58.3,67.3,58.6,49.8,74,60,45,30.06,29.86,21,7,25,0.00
2012-9-3,90.1,77.8,62.1,67.3,57.4,38.6,90,56,17,29.93,29.85,16,2,17,0.00
2012-9-4,90.3,72.9,58.9,69.0,57.1,49.3,97,62,27,29.92,29.78,20,4,22,0.00
2012-9-5,79.0,68.1,56.2,58.8,52.0,41.8,86,59,30,29.92,29.74,23,3,23,0.00
2012-9-6,79.9,63.9,50.8,56.7,48.3,42.8,93,61,28,30.01,29.91,16,2,23,0.07
2012-9-7,65.3,58.0,51.3,57.2,50.9,44.3,98,79,49,30.07,29.93,22,4,26,0.25
2012-9-8,72.0,56.9,43.6,50.4,46.4,42.3,96,71,39,30.07,29.83,27,6,33,0.00
2012-9-9,74.4,58.4,43.3,52.1,46.9,42.0,97,69,37,30.23,30.07,12,2,14,0.00
2012-9-10,81.4,67.2,53.5,50.0,47.1,42.3,78,52,27,30.12,29.84,33,12,34,0.00
2012-9-11,93.6,75.9,63.4,56.1,51.0,46.4,66,44,22,29.84,29.68,33,12,33,0.00
2012-9-12,74.7,59.2,52.9,55.6,49.3,41.6,87,71,46,30.27,29.84,16,4,19,0.02
2012-9-13,72.0,58.3,46.5,49.8,39.8,23.7,95,59,20,30.38,30.27,24,2,24,0.00
2012-9-14,74.0,57.3,41.1,45.0,37.9,33.0,87,53,23,30.41,30.31,16,1,17,0.00
2012-9-15,80.1,62.6,42.1,48.7,43.6,37.6,91,54,27,30.31,29.97,20,6,20,0.00
2012-9-16,78.3,67.8,60.1,54.2,49.0,41.3,73,52,37,30.00,29.88,18,6,19,0.00
2012-9-17,60.2,52.7,43.1,49.8,40.5,30.2,94,66,35,30.05,29.95,20,4,22,0.15
2012-9-18,60.7,47.0,33.8,37.4,32.0,24.3,93,61,27,30.10,29.93,15,3,19,0.00
2012-9-19,71.3,56.0,48.9,51.1,40.8,32.1,82,58,37,29.93,29.65,28,9,35,0.10
2012-9-20,63.1,53.4,46.5,42.9,36.8,28.4,76,56,28,29.93,29.83,25,5,29,0.00
2012-9-21,61.3,49.6,38.6,47.1,39.6,27.0,96,72,27,29.93,29.82,34,4,35,0.10
2012-9-22,55.6,43.9,34.9,40.6,34.5,29.6,94,72,39,30.30,29.93,23,6,24,0.11
2012-9-23,59.5,43.3,30.3,36.3,29.6,25.7,90,63,28,30.37,30.19,17,3,22,0.00
2012-9-24,75.3,54.8,36.9,39.3,33.4,29.0,75,48,22,30.19,29.75,25,8,26,0.00
2012-9-25,65.5,51.2,38.6,42.1,35.8,30.5,92,60,28,30.03,29.82,12,3,15,0.00
2012-9-26,61.6,46.0,31.8,40.4,33.0,29.2,92,65,31,30.28,30.03,16,2,16,0.00
2012-9-27,68.8,47.2,29.3,40.9,32.0,26.7,93,63,24,30.37,30.24,7,0,10,0.00
2012-9-28,74.9,53.8,33.4,43.2,35.7,30.6,91,57,23,30.29,30.11,13,2,15,0.00
2012-9-29,79.4,60.1,41.3,43.1,39.6,36.2,85,51,23,30.17,30.05,14,2,14,0.00
2012-9-30,76.7,58.0,38.9,43.8,37.7,31.8,90,54,22,30.09,29.91,12,2,13,0.00
2012-10-1,69.9,57.7,45.2,48.5,41.6,35.6,79,56,34,30.00,29.84,20,5,21,0.00
2012-10-2,70.4,53.6,33.2,45.9,36.2,30.0,90,56,26,30.04,29.89,18,4,18,0.00
2012-10-3,76.7,63.0,50.4,46.0,41.5,35.8,83,48,27,29.96,29.87,19,6,21,0.00
2012-10-4,64.8,49.4,39.3,45.8,35.2,26.8,74,58,45,30.17,29.76,32,14,37,0.00
2012-10-5,41.8,39.4,37.0,29.8,26.0,24.1,67,58,52,30.18,30.13,30,10,31,0.00
2012-10-6,42.9,37.4,30.6,30.2,24.9,19.4,87,62,39,30.34,30.18,17,4,20,0.00
2012-10-7,51.4,38.4,25.0,25.4,20.1,15.4,83,52,25,30.28,29.93,24,7,25,0.00
2012-10-8,55.0,45.4,35.9,43.8,31.1,20.0,75,58,45,29.93,29.63,25,9,27,0.01
2012-10-9,48.2,43.1,36.3,37.8,31.5,23.4,83,65,41,30.01,29.75,24,6,27,0.00
2012-10-10,49.6,40.0,28.2,28.0,24.8,20.8,84,57,34,30.14,29.91,21,5,24,0.00
2012-10-11,46.5,40.4,27.3,33.0,24.5,14.6,80,55,28,30.47,29.88,20,6,26,0.00
2012-10-12,50.4,36.0,18.8,25.2,16.6,11.5,85,51,21,30.54,30.10,21,6,25,0.00
2012-10-13,50.4,46.9,42.3,47.6,41.3,17.9,92,82,32,30.10,29.70,38,5,38,0.00
2012-10-14,56.7,48.0,42.9,44.9,36.2,23.4,94,68,29,29.85,29.74,21,5,26,0.00
2012-10-15,60.7,48.0,29.7,38.0,33.7,27.0,92,61,32,29.95,29.72,19,3,21,0.00
2012-10-16,68.6,57.7,46.8,48.3,43.8,37.8,86,61,47,29.72,29.38,24,8,24,0.00
2012-10-17,63.7,53.4,45.8,50.4,45.2,39.7,91,74,59,29.37,29.11,33,9,33,0.00
2012-10-18,51.1,46.6,43.2,43.6,41.1,39.1,95,82,66,29.39,29.15,13,0,13,0.01
2012-10-19,52.2,44.6,34.1,46.5,39.6,31.2,97,84,54,29.74,29.39,14,1,18,0.00
2012-10-20,55.6,40.1,25.6,42.6,33.7,23.9,98,80,50,29.83,29.74,14,3,15,0.00
2012-10-21,65.0,52.6,40.9,44.3,41.5,37.7,92,69,43,29.90,29.78,23,5,23,0.05
2012-10-22,56.6,51.4,43.6,45.1,43.0,39.7,87,73,63,29.97,29.88,19,6,20,0.00
2012-10-23,58.4,55.3,50.7,58.0,53.3,44.1,99,93,78,29.90,29.68,17,3,18,0.49
2012-10-24,58.3,53.9,46.2,58.0,53.2,45.4,100,98,92,29.85,29.73,19,4,21,0.29
2012-10-25,46.2,37.8,33.7,45.4,34.9,25.9,97,89,65,30.12,29.68,26,9,27,0.94
2012-10-26,40.5,34.7,30.6,28.6,24.4,21.0,81,66,52,30.36,30.12,19,6,26,0.25
2012-10-27,43.5,33.0,25.8,27.8,22.6,18.2,90,68,38,30.39,30.25,16,2,16,0.00
2012-10-28,32.7,26.9,25.3,24.2,21.9,20.4,86,81,72,30.32,30.28,11,5,12,0.00
2012-10-29,47.4,40.8,29.4,26.8,23.5,20.7,75,51,37,30.29,30.21,17,6,17,0.00
2012-10-30,47.3,32.8,23.2,31.3,21.1,13.3,91,65,30,30.22,30.04,19,4,19,0.00
2012-10-31,49.9,32.0,16.2,21.9,14.5,3.7,89,55,19,30.04,29.87,13,2,15,0.00
2012-11-1,43.5,37.8,28.2,32.0,24.5,15.8,75,59,42,30.03,29.85,24,6,24,0.00
2012-11-2,40.9,31.4,21.3,25.4,22.2,18.9,92,70,47,30.14,30.03,10,2,11,0.00
2012-11-3,40.1,35.0,31.2,27.5,24.9,22.2,75,66,57,30.21,30.13,11,2,11,0.00
2012-11-4,46.8,37.5,27.5,29.8,26.7,22.7,83,66,50,30.20,30.11,12,2,12,0.00
2012-11-5,42.5,37.8,32.1,34.2,28.2,24.2,75,68,59,30.17,29.87,18,6,19,0.00
2012-11-6,42.1,38.8,35.9,39.3,35.6,32.6,100,88,75,29.92,29.69,23,7,26,0.40
2012-11-7,43.2,38.8,36.0,35.4,34.1,33.1,90,83,72,30.06,29.92,16,3,17,0.00
2012-11-8,52.2,40.2,32.1,37.3,32.8,29.5,93,76,53,30.06,29.88,25,9,26,0.00
2012-11-9,47.9,40.2,31.3,38.4,35.4,29.2,98,83,67,30.09,29.97,20,6,22,0.00
2012-11-10,63.7,49.0,41.3,56.5,45.1,35.9,96,87,73,29.97,29.44,27,10,30,0.34
2012-11-11,54.7,34.4,22.2,52.4,29.8,12.2,95,83,65,29.92,29.45,25,10,26,0.07
2012-11-12,25.8,21.9,17.5,16.4,13.5,9.7,84,70,60,30.31,29.92,25,10,25,0.00
2012-11-13,39.1,28.7,15.4,26.6,19.3,12.0,87,69,48,30.40,30.29,17,9,19,0.00
2012-11-14,49.1,40.2,33.5,32.4,29.5,25.1,75,66,51,30.29,30.14,18,10,18,0.00
2012-11-15,49.5,37.9,21.8,33.8,25.4,9.1,81,61,44,30.48,30.11,20,5,21,0.00
2012-11-16,42.1,28.4,13.6,27.1,16.9,9.0,85,63,38,30.53,30.33,22,5,23,0.00
2012-11-17,55.9,45.4,35.2,36.9,33.3,27.0,80,64,46,30.34,30.19,30,16,30,0.00
2012-11-18,55.7,49.2,43.1,34.7,32.5,28.1,60,53,38,30.19,30.06,27,16,28,0.00
2012-11-19,55.4,47.5,34.3,39.6,36.1,31.2,93,66,55,30.09,29.99,21,10,21,0.00
2012-11-20,49.9,36.3,23.6,36.4,30.8,21.9,98,82,53,30.18,30.03,15,3,16,0.00
2012-11-21,57.2,49.0,39.2,42.5,36.7,32.4,79,63,48,30.03,29.65,25,12,28,0.00
2012-11-22,56.3,43.1,21.3,43.6,34.7,17.4,92,73,55,29.92,29.56,26,12,31,0.01
2012-11-23,25.7,21.3,12.3,17.8,14.3,7.4,88,74,62,30.38,29.92,31,12,36,0.00
2012-11-24,27.2,16.4,3.5,18.9,9.8,-1.0,86,75,64,30.38,29.83,18,6,21,0.00
2012-11-25,28.4,26.5,21.6,21.7,19.0,11.7,82,73,58,30.19,29.83,20,5,25,0.00
2012-11-26,21.4,13.4,6.3,11.4,4.6,0.3,77,67,55,30.45,30.19,17,6,18,0.00
2012-11-27,31.5,22.1,15.2,21.3,14.8,8.1,90,73,64,30.38,30.12,16,6,18,0.00
2012-11-28,30.7,26.6,21.8,23.1,19.5,14.3,86,74,68,30.38,30.11,15,6,16,0.00
2012-11-29,35.2,28.0,20.0,25.5,22.4,17.3,90,80,66,30.19,30.08,17,5,17,0.00
2012-11-30,33.5,30.6,26.0,29.9,26.0,21.4,89,83,77,30.22,30.08,23,7,23,0.01
2012-12-1,41.2,37.4,32.8,39.2,35.5,29.9,97,93,87,30.09,29.73,30,9,32,0.04
2012-12-2,39.5,36.5,35.0,37.2,34.5,33.1,96,92,89,30.00,29.81,25,6,28,0.00
2012-12-3,52.6,45.5,35.3,51.9,41.9,29.1,99,88,65,29.84,29.50,31,13,33,0.03
2012-12-4,40.1,26.6,16.2,29.1,15.4,8.8,73,63,46,30.45,29.84,25,7,25,0.00
2012-12-5,37.8,24.8,11.6,21.8,13.1,7.2,85,63,47,30.46,29.88,33,11,35,0.00
2012-12-6,41.9,36.5,22.7,34.8,27.2,17.5,82,69,52,30.01,29.74,32,11,33,0.00
2012-12-7,29.3,24.7,18.4,22.1,19.1,15.6,90,79,70,30.08,30.01,8,0,10,0.00
2012-12-8,34.3,26.1,18.4,23.6,19.9,14.4,84,77,62,30.09,30.02,13,3,14,0.00
2012-12-9,30.9,27.6,18.1,27.6,25.6,15.1,95,92,71,30.06,29.87,21,8,22,0.00
2012-12-10,18.0,9.2,-2.0,14.9,4.3,-6.7,88,80,70,29.97,29.89,17,4,22,0.00
2012-12-11,7.7,3.6,-5.2,2.6,-1.4,-10.5,81,79,77,30.07,29.84,14,8,15,0.00
2012-12-12,37.2,22.8,-6.5,28.4,15.8,-12.1,86,74,67,30.09,29.88,23,10,26,0.04
2012-12-13,34.9,26.4,14.4,25.7,20.9,11.7,90,80,66,30.18,29.91,15,4,16,0.03
2012-12-14,35.3,21.3,4.3,28.1,15.6,0.0,90,79,65,30.18,29.84,22,4,24,0.00
2012-12-15,36.5,35.0,32.5,34.9,32.6,28.1,97,91,76,29.85,29.52,21,5,23,0.67
2012-12-16,32.9,26.9,20.5,32.1,24.7,16.3,97,91,83,29.82,29.54,17,4,17,0.02
2012-12-17,22.2,20.3,19.1,17.8,16.9,15.9,88,86,82,29.82,29.75,12,0,13,0.00
2012-12-18,30.7,23.3,19.4,22.1,19.0,16.4,90,84,69,29.84,29.70,10,2,10,0.00
2012-12-19,30.9,27.5,22.7,27.2,24.1,19.7,91,87,81,30.05,29.84,16,6,17,0.00
2012-12-20,26.1,20.9,9.3,19.7,15.3,3.8,87,79,72,30.09,29.86,30,10,31,0.00
2012-12-21,19.4,9.8,3.9,7.3,2.9,-1.1,83,74,58,30.31,30.09,18,5,18,0.00
2012-12-22,23.8,13.4,2.4,13.3,6.3,-2.4,85,73,58,30.27,30.01,16,4,19,0.00
2012-12-23,19.1,12.3,5.4,9.8,5.5,1.1,83,74,59,30.21,30.09,16,2,17,0.00
2012-12-24,15.2,10.4,0.5,7.7,2.2,-4.7,78,69,52,30.36,30.06,16,4,18,0.00
2012-12-25,9.7,0.3,-6.5,-0.9,-6.3,-12.1,79,73,61,30.58,30.36,9,2,10,0.00
2012-12-26,14.0,1.4,-4.8,3.0,-4.5,-10.4,80,76,59,30.49,30.33,5,0,5,0.00
2012-12-27,21.0,9.9,-4.3,14.9,4.0,-9.9,88,77,65,30.35,30.21,6,1,6,0.00
2012-12-28,25.6,17.7,9.0,17.8,13.6,5.4,89,84,66,30.20,30.05,7,1,8,0.00
2012-12-29,17.5,13.4,1.7,14.4,8.6,-2.8,88,81,71,30.21,30.04,15,3,16,0.00
2012-12-30,19.4,8.9,-1.0,12.2,3.3,-6.2,86,78,71,30.24,29.92,19,7,19,0.00
2012-12-31,14.6,6.2,-6.5,9.8,-1.3,-13.0,85,71,52,30.34,29.98,15,4,18,0.00
2013-1-1,15.7,1.3,-14.8,11.2,-5.1,-22.0,82,74,64,30.35,30.08,12,4,13,0.00